Year,Month,Day,Hour,Minute,Value (Times are PST for temperature in C)
2014,04,12,00,00,6.30
2014,04,12,00,01,6.30
2014,04,12,00,02,6.30
2014,04,12,00,03,6.20
2014,04,12,00,04,6.20
2014,04,12,00,05,6.20
2014,04,12,00,06,6.20
2014,04,12,00,07,6.20
2014,04,12,00,08,6.20
2014,04,12,00,09,6.20
2014,04,12,00,10,6.20
2014,04,12,00,11,6.20
2014,04,12,00,12,6.20
2014,04,12,00,13,6.20
2014,04,12,00,14,6.20
2014,04,12,00,15,6.20
2014,04,12,00,16,6.20
2014,04,12,00,17,6.20
2014,04,12,00,18,6.10
2014,04,12,00,19,6.10
2014,04,12,00,20,6.10
2014,04,12,00,21,6.10
2014,04,12,00,22,6.10
2014,04,12,00,23,6.10
2014,04,12,00,24,6.10
2014,04,12,00,25,6.10
2014,04,12,00,26,6.10
2014,04,12,00,27,6.10
2014,04,12,00,28,6.10
2014,04,12,00,29,6.10
2014,04,12,00,30,6.10
2014,04,12,00,31,6.00
2014,04,12,00,32,6.00
2014,04,12,00,33,6.00
2014,04,12,00,34,5.90
2014,04,12,00,35,5.90
2014,04,12,00,36,5.90
2014,04,12,00,37,5.90
2014,04,12,00,38,5.90
2014,04,12,00,39,5.80
2014,04,12,00,40,5.80
2014,04,12,00,41,5.80
2014,04,12,00,42,5.80
2014,04,12,00,43,5.80
2014,04,12,00,44,5.80
2014,04,12,00,45,5.70
2014,04,12,00,46,5.70
2014,04,12,00,47,5.70
2014,04,12,00,48,5.70
2014,04,12,00,49,5.70
2014,04,12,00,50,5.60
2014,04,12,00,51,5.60
2014,04,12,00,52,5.60
2014,04,12,00,53,5.60
2014,04,12,00,54,5.60
2014,04,12,00,55,5.50
2014,04,12,00,56,5.50
2014,04,12,00,57,5.50
2014,04,12,00,58,5.50
2014,04,12,00,59,5.40
2014,04,12,01,00,5.40
2014,04,12,01,01,5.40
2014,04,12,01,02,5.40
2014,04,12,01,03,5.30
2014,04,12,01,04,5.30
2014,04,12,01,05,5.30
2014,04,12,01,06,5.30
2014,04,12,01,07,5.30
2014,04,12,01,08,5.30
2014,04,12,01,09,5.30
2014,04,12,01,10,5.20
2014,04,12,01,11,5.20
2014,04,12,01,12,5.20
2014,04,12,01,13,5.20
2014,04,12,01,14,5.20
2014,04,12,01,15,5.20
2014,04,12,01,16,5.20
2014,04,12,01,17,5.10
2014,04,12,01,18,5.10
2014,04,12,01,19,5.10
2014,04,12,01,20,5.10
2014,04,12,01,21,5.10
2014,04,12,01,22,5.10
2014,04,12,01,23,5.10
2014,04,12,01,24,5.10
2014,04,12,01,25,5.10
2014,04,12,01,26,5.10
2014,04,12,01,27,5.10
2014,04,12,01,28,5.10
2014,04,12,01,29,5.10
2014,04,12,01,30,5.10
2014,04,12,01,31,5.10
2014,04,12,01,32,5.10
2014,04,12,01,33,5.10
2014,04,12,01,34,5.10
2014,04,12,01,35,5.10
2014,04,12,01,36,5.10
2014,04,12,01,37,5.10
2014,04,12,01,38,5.10
2014,04,12,01,39,5.10
2014,04,12,01,40,5.10
2014,04,12,01,41,5.10
2014,04,12,01,42,5.10
2014,04,12,01,43,5.00
2014,04,12,01,44,5.00
2014,04,12,01,45,5.00
2014,04,12,01,46,5.00
2014,04,12,01,47,5.00
2014,04,12,01,48,4.90
2014,04,12,01,49,4.90
2014,04,12,01,50,4.90
2014,04,12,01,51,4.90
2014,04,12,01,52,4.90
2014,04,12,01,53,4.90
2014,04,12,01,54,4.90
2014,04,12,01,55,4.80
2014,04,12,01,56,4.80
2014,04,12,01,57,4.80
2014,04,12,01,58,4.80
2014,04,12,01,59,4.80
2014,04,12,02,00,4.80
2014,04,12,02,01,4.70
2014,04,12,02,02,4.70
2014,04,12,02,03,4.70
2014,04,12,02,04,4.70
2014,04,12,02,05,4.70
2014,04,12,02,06,4.70
2014,04,12,02,07,4.60
2014,04,12,02,08,4.60
2014,04,12,02,09,4.60
2014,04,12,02,10,4.60
2014,04,12,02,11,4.60
2014,04,12,02,12,4.50
2014,04,12,02,13,4.50
2014,04,12,02,14,4.50
2014,04,12,02,15,4.40
2014,04,12,02,16,4.40
2014,04,12,02,17,4.40
2014,04,12,02,18,4.40
2014,04,12,02,19,4.40
2014,04,12,02,20,4.40
2014,04,12,02,21,4.30
2014,04,12,02,22,4.30
2014,04,12,02,23,4.30
2014,04,12,02,24,4.30
2014,04,12,02,25,4.30
2014,04,12,02,26,4.30
2014,04,12,02,27,4.30
2014,04,12,02,28,4.30
2014,04,12,02,29,4.30
2014,04,12,02,30,4.30
2014,04,12,02,31,4.20
2014,04,12,02,32,4.20
2014,04,12,02,33,4.20
2014,04,12,02,34,4.20
2014,04,12,02,35,4.20
2014,04,12,02,36,4.20
2014,04,12,02,37,4.20
2014,04,12,02,38,4.20
2014,04,12,02,39,4.20
2014,04,12,02,40,4.20
2014,04,12,02,41,4.10
2014,04,12,02,42,4.10
2014,04,12,02,43,4.10
2014,04,12,02,44,4.10
2014,04,12,02,45,4.10
2014,04,12,02,46,4.10
2014,04,12,02,47,4.10
2014,04,12,02,48,4.10
2014,04,12,02,49,4.10
2014,04,12,02,50,4.10
2014,04,12,02,51,4.10
2014,04,12,02,52,4.10
2014,04,12,02,53,4.10
2014,04,12,02,54,4.10
2014,04,12,02,55,4.20
2014,04,12,02,56,4.20
2014,04,12,02,57,4.20
2014,04,12,02,58,4.10
2014,04,12,02,59,4.10
2014,04,12,03,00,4.10
2014,04,12,03,01,4.10
2014,04,12,03,02,4.10
2014,04,12,03,03,4.10
2014,04,12,03,06,4.10
2014,04,12,03,07,4.10
2014,04,12,03,08,4.10
2014,04,12,03,09,4.10
2014,04,12,03,10,4.10
2014,04,12,03,11,4.10
2014,04,12,03,12,4.10
2014,04,12,03,13,4.10
2014,04,12,03,14,4.10
2014,04,12,03,15,4.00
2014,04,12,03,16,4.00
2014,04,12,03,17,4.00
2014,04,12,03,18,4.00
2014,04,12,03,19,3.90
2014,04,12,03,20,3.90
2014,04,12,03,21,3.90
2014,04,12,03,22,3.90
2014,04,12,03,23,3.90
2014,04,12,03,24,3.80
2014,04,12,03,25,3.80
2014,04,12,03,26,3.80
2014,04,12,03,27,3.80
2014,04,12,03,28,3.70
2014,04,12,03,29,3.70
2014,04,12,03,30,3.70
2014,04,12,03,31,3.70
2014,04,12,03,32,3.70
2014,04,12,03,33,3.60
2014,04,12,03,34,3.60
2014,04,12,03,35,3.60
2014,04,12,03,36,3.50
2014,04,12,03,37,3.50
2014,04,12,03,38,3.50
2014,04,12,03,39,3.40
2014,04,12,03,40,3.40
2014,04,12,03,41,3.40
2014,04,12,03,42,3.30
2014,04,12,03,43,3.30
2014,04,12,03,44,3.30
2014,04,12,03,45,3.30
2014,04,12,03,46,3.30
2014,04,12,03,47,3.30
2014,04,12,03,48,3.30
2014,04,12,03,49,3.30
2014,04,12,03,50,3.30
2014,04,12,03,51,3.30
2014,04,12,03,52,3.30
2014,04,12,03,53,3.30
2014,04,12,03,54,3.30
2014,04,12,03,55,3.30
2014,04,12,03,56,3.30
2014,04,12,03,57,3.30
2014,04,12,03,58,3.20
2014,04,12,03,59,3.20
2014,04,12,04,00,3.20
2014,04,12,04,01,3.20
2014,04,12,04,02,3.20
2014,04,12,04,03,3.20
2014,04,12,04,04,3.20
2014,04,12,04,05,3.20
2014,04,12,04,06,3.20
2014,04,12,04,07,3.10
2014,04,12,04,08,3.10
2014,04,12,04,09,3.10
2014,04,12,04,10,3.10
2014,04,12,04,11,3.10
2014,04,12,04,12,3.10
2014,04,12,04,13,3.10
2014,04,12,04,14,3.10
2014,04,12,04,15,3.00
2014,04,12,04,16,3.00
2014,04,12,04,17,3.00
2014,04,12,04,18,3.00
2014,04,12,04,19,2.90
2014,04,12,04,20,2.90
2014,04,12,04,21,2.90
2014,04,12,04,22,2.90
2014,04,12,04,23,2.80
2014,04,12,04,24,2.80
2014,04,12,04,25,2.80
2014,04,12,04,26,2.80
2014,04,12,04,27,2.80
2014,04,12,04,28,2.70
2014,04,12,04,29,2.70
2014,04,12,04,30,2.70
2014,04,12,04,31,2.70
2014,04,12,04,32,2.70
2014,04,12,04,33,2.60
2014,04,12,04,34,2.60
2014,04,12,04,35,2.60
2014,04,12,04,36,2.60
2014,04,12,04,37,2.60
2014,04,12,04,38,2.60
2014,04,12,04,39,2.50
2014,04,12,04,40,2.50
2014,04,12,04,41,2.50
2014,04,12,04,42,2.50
2014,04,12,04,43,2.50
2014,04,12,04,44,2.50
2014,04,12,04,45,2.50
2014,04,12,04,46,2.40
2014,04,12,04,47,2.40
2014,04,12,04,48,2.40
2014,04,12,04,49,2.40
2014,04,12,04,50,2.40
2014,04,12,04,51,2.40
2014,04,12,04,52,2.30
2014,04,12,04,53,2.30
2014,04,12,04,54,2.30
2014,04,12,04,55,2.30
2014,04,12,04,56,2.30
2014,04,12,04,57,2.20
2014,04,12,04,58,2.20
2014,04,12,04,59,2.20
2014,04,12,05,00,2.20
2014,04,12,05,01,2.20
2014,04,12,05,02,2.20
2014,04,12,05,03,2.10
2014,04,12,05,04,2.10
2014,04,12,05,05,2.10
2014,04,12,05,06,2.10
2014,04,12,05,07,2.10
2014,04,12,05,08,2.10
2014,04,12,05,09,2.00
2014,04,12,05,10,2.00
2014,04,12,05,11,2.00
2014,04,12,05,12,2.00
2014,04,12,05,13,2.00
2014,04,12,05,14,2.00
2014,04,12,05,15,2.00
2014,04,12,05,16,1.90
2014,04,12,05,17,1.90
2014,04,12,05,18,1.90
2014,04,12,05,19,1.90
2014,04,12,05,20,1.90
2014,04,12,05,21,1.90
2014,04,12,05,22,1.90
2014,04,12,05,23,1.90
2014,04,12,05,24,1.90
2014,04,12,05,25,1.90
2014,04,12,05,26,1.90
2014,04,12,05,27,1.90
2014,04,12,05,28,1.90
2014,04,12,05,29,1.90
2014,04,12,05,30,1.90
2014,04,12,05,31,1.90
2014,04,12,05,32,1.80
2014,04,12,05,33,1.80
2014,04,12,05,34,1.80
2014,04,12,05,35,1.80
2014,04,12,05,36,1.80
2014,04,12,05,37,1.80
2014,04,12,05,38,1.80
2014,04,12,05,39,1.80
2014,04,12,05,40,1.80
2014,04,12,05,41,1.80
2014,04,12,05,42,1.70
2014,04,12,05,43,1.70
2014,04,12,05,44,1.70
2014,04,12,05,45,1.70
2014,04,12,05,46,1.70
2014,04,12,05,47,1.70
2014,04,12,05,48,1.70
2014,04,12,05,49,1.70
2014,04,12,05,50,1.70
2014,04,12,05,51,1.70
2014,04,12,05,52,1.70
2014,04,12,05,53,1.70
2014,04,12,05,54,1.70
2014,04,12,05,55,1.70
2014,04,12,05,56,1.60
2014,04,12,05,57,1.60
2014,04,12,05,58,1.60
2014,04,12,05,59,1.60
2014,04,12,06,00,1.60
2014,04,12,06,01,1.60
2014,04,12,06,02,1.60
2014,04,12,06,03,1.60
2014,04,12,06,04,1.60
2014,04,12,06,05,1.60
2014,04,12,06,06,1.60
2014,04,12,06,07,1.60
2014,04,12,06,08,1.60
2014,04,12,06,09,1.60
2014,04,12,06,10,1.60
2014,04,12,06,11,1.60
2014,04,12,06,12,1.60
2014,04,12,06,13,1.60
2014,04,12,06,14,1.60
2014,04,12,06,15,1.60
2014,04,12,06,16,1.60
2014,04,12,06,17,1.50
2014,04,12,06,18,1.50
2014,04,12,06,19,1.50
2014,04,12,06,20,1.50
2014,04,12,06,21,1.50
2014,04,12,06,22,1.50
2014,04,12,06,23,1.50
2014,04,12,06,24,1.50
2014,04,12,06,25,1.40
2014,04,12,06,26,1.40
2014,04,12,06,27,1.40
2014,04,12,06,28,1.40
2014,04,12,06,29,1.40
2014,04,12,06,30,1.30
2014,04,12,06,31,1.30
2014,04,12,06,32,1.30
2014,04,12,06,33,1.30
2014,04,12,06,34,1.30
2014,04,12,06,35,1.30
2014,04,12,06,36,1.30
2014,04,12,06,37,1.30
2014,04,12,06,38,1.30
2014,04,12,06,39,1.40
2014,04,12,06,40,1.40
2014,04,12,06,41,1.40
2014,04,12,06,42,1.40
2014,04,12,06,43,1.40
2014,04,12,06,44,1.40
2014,04,12,06,45,1.30
2014,04,12,06,46,1.30
2014,04,12,06,47,1.30
2014,04,12,06,48,1.30
2014,04,12,06,49,1.30
2014,04,12,06,50,1.30
2014,04,12,06,51,1.30
2014,04,12,06,52,1.30
2014,04,12,06,53,1.30
2014,04,12,06,54,1.30
2014,04,12,06,55,1.30
2014,04,12,06,56,1.30
2014,04,12,06,57,1.30
2014,04,12,06,58,1.30
2014,04,12,06,59,1.30
2014,04,12,07,00,1.30
2014,04,12,07,01,1.30
2014,04,12,07,02,1.30
2014,04,12,07,03,1.30
2014,04,12,07,04,1.30
2014,04,12,07,05,1.30
2014,04,12,07,06,1.30
2014,04,12,07,07,1.30
2014,04,12,07,08,1.30
2014,04,12,07,09,1.30
2014,04,12,07,10,1.30
2014,04,12,07,11,1.30
2014,04,12,07,12,1.30
2014,04,12,07,13,1.30
2014,04,12,07,14,1.30
2014,04,12,07,15,1.30
2014,04,12,07,16,1.30
2014,04,12,07,17,1.30
2014,04,12,07,18,1.30
2014,04,12,07,19,1.30
2014,04,12,07,20,1.30
2014,04,12,07,21,1.30
2014,04,12,07,22,1.40
2014,04,12,07,23,1.40
2014,04,12,07,24,1.40
2014,04,12,07,25,1.50
2014,04,12,07,26,1.50
2014,04,12,07,27,1.50
2014,04,12,07,28,1.50
2014,04,12,07,29,1.50
2014,04,12,07,30,1.60
2014,04,12,07,31,1.60
2014,04,12,07,32,1.60
2014,04,12,07,33,1.60
2014,04,12,07,34,1.60
2014,04,12,07,35,1.60
2014,04,12,07,36,1.60
2014,04,12,07,37,1.60
2014,04,12,07,38,1.70
2014,04,12,07,39,1.70
2014,04,12,07,40,1.70
2014,04,12,07,41,1.80
2014,04,12,07,42,1.80
2014,04,12,07,43,1.90
2014,04,12,07,44,2.00
2014,04,12,07,45,2.00
2014,04,12,07,46,2.10
2014,04,12,07,47,2.20
2014,04,12,07,48,2.20
2014,04,12,07,49,2.30
2014,04,12,07,50,2.40
2014,04,12,07,51,2.40
2014,04,12,07,52,2.50
2014,04,12,07,53,2.50
2014,04,12,07,54,2.50
2014,04,12,07,55,2.60
2014,04,12,07,56,2.60
2014,04,12,07,57,2.70
2014,04,12,07,58,2.70
2014,04,12,07,59,2.80
2014,04,12,08,00,2.90
2014,04,12,08,01,2.90
2014,04,12,08,02,3.00
2014,04,12,08,03,3.10
2014,04,12,08,04,3.20
2014,04,12,08,05,3.20
2014,04,12,08,06,3.30
2014,04,12,08,07,3.30
2014,04,12,08,08,3.40
2014,04,12,08,09,3.40
2014,04,12,08,10,3.50
2014,04,12,08,11,3.50
2014,04,12,08,12,3.50
2014,04,12,08,13,3.60
2014,04,12,08,14,3.70
2014,04,12,08,15,3.70
2014,04,12,08,16,3.70
2014,04,12,08,17,3.70
2014,04,12,08,18,3.70
2014,04,12,08,19,3.80
2014,04,12,08,20,3.80
2014,04,12,08,21,3.90
2014,04,12,08,22,4.00
2014,04,12,08,23,4.00
2014,04,12,08,24,4.10
2014,04,12,08,25,4.10
2014,04,12,08,26,4.20
2014,04,12,08,27,4.30
2014,04,12,08,28,4.30
2014,04,12,08,29,4.40
2014,04,12,08,30,4.50
2014,04,12,08,31,4.60
2014,04,12,08,32,4.70
2014,04,12,08,33,4.80
2014,04,12,08,34,4.90
2014,04,12,08,35,4.90
2014,04,12,08,36,5.00
2014,04,12,08,37,5.10
2014,04,12,08,38,5.10
2014,04,12,08,39,5.20
2014,04,12,08,40,5.20
2014,04,12,08,41,5.30
2014,04,12,08,42,5.30
2014,04,12,08,43,5.30
2014,04,12,08,44,5.40
2014,04,12,08,45,5.40
2014,04,12,08,46,5.50
2014,04,12,08,47,5.50
2014,04,12,08,48,5.60
2014,04,12,08,49,5.60
2014,04,12,08,50,5.60
2014,04,12,08,51,5.60
2014,04,12,08,52,5.60
2014,04,12,08,53,5.70
2014,04,12,08,54,5.70
2014,04,12,08,55,5.70
2014,04,12,08,56,5.70
2014,04,12,08,57,5.70
2014,04,12,08,58,5.70
2014,04,12,08,59,5.80
2014,04,12,09,00,5.80
2014,04,12,09,01,5.80
2014,04,12,09,02,5.80
2014,04,12,09,03,5.80
2014,04,12,09,04,5.80
2014,04,12,09,05,5.80
2014,04,12,09,06,5.80
2014,04,12,09,07,5.90
2014,04,12,09,08,5.90
2014,04,12,09,09,5.90
2014,04,12,09,10,5.90
2014,04,12,09,11,6.00
2014,04,12,09,12,6.00
2014,04,12,09,13,6.00
2014,04,12,09,14,6.10
2014,04,12,09,15,6.10
2014,04,12,09,16,6.10
2014,04,12,09,17,6.20
2014,04,12,09,18,6.20
2014,04,12,09,19,6.30
2014,04,12,09,20,6.30
2014,04,12,09,21,6.40
2014,04,12,09,22,6.50
2014,04,12,09,23,6.50
2014,04,12,09,24,6.60
2014,04,12,09,25,6.70
2014,04,12,09,26,6.80
2014,04,12,09,27,6.80
2014,04,12,09,28,6.90
2014,04,12,09,29,7.00
2014,04,12,09,30,7.00
2014,04,12,09,31,7.10
2014,04,12,09,32,7.20
2014,04,12,09,33,7.20
2014,04,12,09,34,7.20
2014,04,12,09,35,7.30
2014,04,12,09,36,7.30
2014,04,12,09,37,7.40
2014,04,12,09,38,7.40
2014,04,12,09,39,7.50
2014,04,12,09,40,7.50
2014,04,12,09,41,7.60
2014,04,12,09,42,7.70
2014,04,12,09,43,7.80
2014,04,12,09,44,7.80
2014,04,12,09,45,7.80
2014,04,12,09,46,7.90
2014,04,12,09,47,7.90
2014,04,12,09,48,7.90
2014,04,12,09,49,8.00
2014,04,12,09,50,8.00
2014,04,12,09,51,8.10
2014,04,12,09,52,8.10
2014,04,12,09,53,8.20
2014,04,12,09,54,8.20
2014,04,12,09,55,8.30
2014,04,12,09,56,8.30
2014,04,12,09,57,8.40
2014,04,12,09,58,8.40
2014,04,12,09,59,8.50
2014,04,12,10,00,8.50
2014,04,12,10,01,8.60
2014,04,12,10,02,8.60
2014,04,12,10,03,8.60
2014,04,12,10,04,8.70
2014,04,12,10,05,8.80
2014,04,12,10,06,8.80
2014,04,12,10,07,8.90
2014,04,12,10,08,8.90
2014,04,12,10,09,9.00
2014,04,12,10,10,9.00
2014,04,12,10,11,9.10
2014,04,12,10,12,9.10
2014,04,12,10,13,9.20
2014,04,12,10,14,9.20
2014,04,12,10,15,9.30
2014,04,12,10,16,9.40
2014,04,12,10,17,9.40
2014,04,12,10,18,9.50
2014,04,12,10,19,9.60
2014,04,12,10,20,9.60
2014,04,12,10,21,9.70
2014,04,12,10,22,9.80
2014,04,12,10,23,9.80
2014,04,12,10,24,9.90
2014,04,12,10,25,9.90
2014,04,12,10,26,9.90
2014,04,12,10,27,10.00
2014,04,12,10,28,10.00
2014,04,12,10,29,10.10
2014,04,12,10,30,10.10
2014,04,12,10,31,10.10
2014,04,12,10,32,10.20
2014,04,12,10,33,10.20
2014,04,12,10,34,10.20
2014,04,12,10,35,10.20
2014,04,12,10,36,10.20
2014,04,12,10,37,10.20
2014,04,12,10,38,10.30
2014,04,12,10,39,10.30
2014,04,12,10,40,10.30
2014,04,12,10,41,10.40
2014,04,12,10,42,10.50
2014,04,12,10,43,10.50
2014,04,12,10,44,10.60
2014,04,12,10,45,10.60
2014,04,12,10,46,10.60
2014,04,12,10,47,10.60
2014,04,12,10,48,10.60
2014,04,12,10,49,10.60
2014,04,12,10,50,10.70
2014,04,12,10,51,10.80
2014,04,12,10,52,10.90
2014,04,12,10,53,10.90
2014,04,12,10,54,11.00
2014,04,12,10,55,11.00
2014,04,12,10,56,11.10
2014,04,12,10,57,11.20
2014,04,12,10,58,11.20
2014,04,12,10,59,11.20
2014,04,12,11,00,11.30
2014,04,12,11,01,11.30
2014,04,12,11,02,11.40
2014,04,12,11,03,11.40
2014,04,12,11,04,11.40
2014,04,12,11,05,11.40
2014,04,12,11,06,11.40
2014,04,12,11,07,11.40
2014,04,12,11,08,11.40
2014,04,12,11,09,11.40
2014,04,12,11,10,11.30
2014,04,12,11,11,11.30
2014,04,12,11,12,11.30
2014,04,12,11,13,11.20
2014,04,12,11,14,11.20
2014,04,12,11,15,11.20
2014,04,12,11,16,11.30
2014,04,12,11,17,11.30
2014,04,12,11,18,11.30
2014,04,12,11,19,11.40
2014,04,12,11,20,11.40
2014,04,12,11,21,11.40
2014,04,12,11,22,11.40
2014,04,12,11,23,11.50
2014,04,12,11,24,11.50
2014,04,12,11,25,11.50
2014,04,12,11,26,11.50
2014,04,12,11,27,11.50
2014,04,12,11,28,11.60
2014,04,12,11,29,11.60
2014,04,12,11,30,11.70
2014,04,12,11,31,11.90
2014,04,12,11,32,12.00
2014,04,12,11,33,12.10
2014,04,12,11,34,12.10
2014,04,12,11,35,12.10
2014,04,12,11,36,12.10
2014,04,12,11,37,12.10
2014,04,12,11,38,12.10
2014,04,12,11,39,12.20
2014,04,12,11,40,12.20
2014,04,12,11,41,12.20
2014,04,12,11,42,12.20
2014,04,12,11,43,12.20
2014,04,12,11,44,12.20
2014,04,12,11,45,12.20
2014,04,12,11,46,12.30
2014,04,12,11,47,12.30
2014,04,12,11,48,12.30
2014,04,12,11,49,12.40
2014,04,12,11,50,12.40
2014,04,12,11,51,12.40
2014,04,12,11,52,12.40
2014,04,12,11,53,12.40
2014,04,12,11,54,12.40
2014,04,12,11,55,12.40
2014,04,12,11,56,12.40
2014,04,12,11,57,12.40
2014,04,12,11,58,12.40
2014,04,12,11,59,12.40
2014,04,12,12,00,12.40
2014,04,12,12,01,12.40
2014,04,12,12,02,12.40
2014,04,12,12,03,12.40
2014,04,12,12,04,12.50
2014,04,12,12,05,12.50
2014,04,12,12,06,12.60
2014,04,12,12,07,12.70
2014,04,12,12,08,12.70
2014,04,12,12,09,12.70
2014,04,12,12,10,12.70
2014,04,12,12,11,12.70
2014,04,12,12,12,12.80
2014,04,12,12,13,12.80
2014,04,12,12,14,12.80
2014,04,12,12,15,12.90
2014,04,12,12,16,12.90
2014,04,12,12,17,12.90
2014,04,12,12,18,13.00
2014,04,12,12,19,13.00
2014,04,12,12,20,13.00
2014,04,12,12,21,13.10
2014,04,12,12,22,13.20
2014,04,12,12,23,13.20
2014,04,12,12,24,13.30
2014,04,12,12,25,13.40
2014,04,12,12,26,13.50
2014,04,12,12,27,13.60
2014,04,12,12,28,13.60
2014,04,12,12,29,13.60
2014,04,12,12,30,13.70
2014,04,12,12,31,13.70
2014,04,12,12,32,13.70
2014,04,12,12,33,13.70
2014,04,12,12,34,13.70
2014,04,12,12,35,13.70
2014,04,12,12,36,13.70
2014,04,12,12,37,13.70
2014,04,12,12,38,13.70
2014,04,12,12,39,13.60
2014,04,12,12,40,13.60
2014,04,12,12,41,13.60
2014,04,12,12,42,13.60
2014,04,12,12,43,13.70
2014,04,12,12,44,13.70
2014,04,12,12,45,13.80
2014,04,12,12,46,13.90
2014,04,12,12,47,14.00
2014,04,12,12,48,14.10
2014,04,12,12,49,14.10
2014,04,12,12,50,14.10
2014,04,12,12,51,14.20
2014,04,12,12,52,14.20
2014,04,12,12,53,14.20
2014,04,12,12,54,14.20
2014,04,12,12,55,14.20
2014,04,12,12,56,14.20
2014,04,12,12,57,14.20
2014,04,12,12,58,14.20
2014,04,12,12,59,14.20
2014,04,12,13,00,14.30
2014,04,12,13,01,14.30
2014,04,12,13,02,14.30
2014,04,12,13,03,14.40
2014,04,12,13,04,14.40
2014,04,12,13,05,14.40
2014,04,12,13,06,14.40
2014,04,12,13,07,14.40
2014,04,12,13,08,14.40
2014,04,12,13,09,14.40
2014,04,12,13,10,14.50
2014,04,12,13,11,14.60
2014,04,12,13,12,14.80
2014,04,12,13,13,14.80
2014,04,12,13,14,14.80
2014,04,12,13,15,14.70
2014,04,12,13,16,14.60
2014,04,12,13,17,14.60
2014,04,12,13,18,14.50
2014,04,12,13,19,14.50
2014,04,12,13,20,14.50
2014,04,12,13,21,14.60
2014,04,12,13,22,14.60
2014,04,12,13,23,14.60
2014,04,12,13,24,14.60
2014,04,12,13,25,14.70
2014,04,12,13,26,14.70
2014,04,12,13,27,14.70
2014,04,12,13,28,14.70
2014,04,12,13,29,14.70
2014,04,12,13,30,14.70
2014,04,12,13,31,14.70
2014,04,12,13,32,14.70
2014,04,12,13,33,14.70
2014,04,12,13,34,14.80
2014,04,12,13,35,15.00
2014,04,12,13,36,15.00
2014,04,12,13,37,15.00
2014,04,12,13,38,15.00
2014,04,12,13,39,14.90
2014,04,12,13,40,14.80
2014,04,12,13,41,14.80
2014,04,12,13,42,14.80
2014,04,12,13,43,14.80
2014,04,12,13,44,14.90
2014,04,12,13,45,15.00
2014,04,12,13,46,15.00
2014,04,12,13,47,15.00
2014,04,12,13,48,15.00
2014,04,12,13,49,15.00
2014,04,12,13,50,15.00
2014,04,12,13,51,15.00
2014,04,12,13,52,15.00
2014,04,12,13,53,15.00
2014,04,12,13,54,15.10
2014,04,12,13,55,15.10
2014,04,12,13,56,15.20
2014,04,12,13,57,15.20
2014,04,12,13,58,15.20
2014,04,12,13,59,15.20
2014,04,12,14,00,15.30
2014,04,12,14,01,15.40
2014,04,12,14,02,15.40
2014,04,12,14,03,15.50
2014,04,12,14,04,15.60
2014,04,12,14,05,15.70
2014,04,12,14,06,15.70
2014,04,12,14,07,15.80
2014,04,12,14,08,15.80
2014,04,12,14,09,15.90
2014,04,12,14,10,15.90
2014,04,12,14,11,16.00
2014,04,12,14,12,16.00
2014,04,12,14,13,16.10
2014,04,12,14,14,16.10
2014,04,12,14,15,16.00
2014,04,12,14,16,16.00
2014,04,12,14,17,15.90
2014,04,12,14,18,15.80
2014,04,12,14,19,15.80
2014,04,12,14,20,15.80
2014,04,12,14,21,15.90
2014,04,12,14,22,15.90
2014,04,12,14,23,15.80
2014,04,12,14,24,15.70
2014,04,12,14,25,15.60
2014,04,12,14,26,15.50
2014,04,12,14,27,15.40
2014,04,12,14,28,15.30
2014,04,12,14,29,15.20
2014,04,12,14,30,15.20
2014,04,12,14,31,15.20
2014,04,12,14,32,15.10
2014,04,12,14,33,15.10
2014,04,12,14,34,15.20
2014,04,12,14,35,15.20
2014,04,12,14,36,15.20
2014,04,12,14,37,15.20
2014,04,12,14,38,15.30
2014,04,12,14,39,15.40
2014,04,12,14,40,15.40
2014,04,12,14,41,15.40
2014,04,12,14,42,15.40
2014,04,12,14,43,15.40
2014,04,12,14,44,15.50
2014,04,12,14,45,15.50
2014,04,12,14,46,15.50
2014,04,12,14,47,15.60
2014,04,12,14,48,15.60
2014,04,12,14,49,15.70
2014,04,12,14,50,15.70
2014,04,12,14,51,15.70
2014,04,12,14,52,15.70
2014,04,12,14,53,15.70
2014,04,12,14,54,15.70
2014,04,12,14,55,15.70
2014,04,12,14,56,15.60
2014,04,12,14,57,15.60
2014,04,12,14,58,15.60
2014,04,12,14,59,15.70
2014,04,12,15,00,15.70
2014,04,12,15,01,15.60
2014,04,12,15,02,15.70
2014,04,12,15,03,15.70
2014,04,12,15,04,15.70
2014,04,12,15,05,15.70
2014,04,12,15,06,15.80
2014,04,12,15,07,15.80
2014,04,12,15,08,15.90
2014,04,12,15,09,15.90
2014,04,12,15,10,15.90
2014,04,12,15,11,15.90
2014,04,12,15,12,15.90
2014,04,12,15,13,15.90
2014,04,12,15,14,15.90
2014,04,12,15,15,16.00
2014,04,12,15,16,16.10
2014,04,12,15,17,16.10
2014,04,12,15,18,16.10
2014,04,12,15,19,16.20
2014,04,12,15,20,16.30
2014,04,12,15,21,16.30
2014,04,12,15,22,16.30
2014,04,12,15,23,16.20
2014,04,12,15,24,16.20
2014,04,12,15,25,16.10
2014,04,12,15,26,16.10
2014,04,12,15,27,16.10
2014,04,12,15,28,16.00
2014,04,12,15,29,16.00
2014,04,12,15,30,16.00
2014,04,12,15,31,16.00
2014,04,12,15,32,15.90
2014,04,12,15,33,15.90
2014,04,12,15,34,15.90
2014,04,12,15,35,15.80
2014,04,12,15,36,15.80
2014,04,12,15,37,15.80
2014,04,12,15,38,15.80
2014,04,12,15,39,15.80
2014,04,12,15,40,15.80
2014,04,12,15,41,15.90
2014,04,12,15,42,15.90
2014,04,12,15,43,15.90
2014,04,12,15,44,16.00
2014,04,12,15,45,16.10
2014,04,12,15,46,16.10
2014,04,12,15,47,16.20
2014,04,12,15,48,16.20
2014,04,12,15,49,16.20
2014,04,12,15,50,16.20
2014,04,12,15,51,16.20
2014,04,12,15,52,16.20
2014,04,12,15,53,16.30
2014,04,12,15,54,16.30
2014,04,12,15,55,16.40
2014,04,12,15,56,16.40
2014,04,12,15,57,16.50
2014,04,12,15,58,16.40
2014,04,12,15,59,16.40
2014,04,12,16,00,16.40
2014,04,12,16,01,16.40
2014,04,12,16,02,16.40
2014,04,12,16,03,16.30
2014,04,12,16,04,16.30
2014,04,12,16,05,16.30
2014,04,12,16,06,16.30
2014,04,12,16,07,16.30
2014,04,12,16,08,16.20
2014,04,12,16,09,16.20
2014,04,12,16,10,16.10
2014,04,12,16,11,16.10
2014,04,12,16,12,16.20
2014,04,12,16,13,16.20
2014,04,12,16,14,16.20
2014,04,12,16,15,16.30
2014,04,12,16,16,16.30
2014,04,12,16,17,16.30
2014,04,12,16,18,16.40
2014,04,12,16,19,16.50
2014,04,12,16,20,16.60
2014,04,12,16,21,16.60
2014,04,12,16,22,16.60
2014,04,12,16,23,16.70
2014,04,12,16,24,16.70
2014,04,12,16,25,16.80
2014,04,12,16,26,16.80
2014,04,12,16,27,16.80
2014,04,12,16,28,16.80
2014,04,12,16,29,16.80
2014,04,12,16,30,16.80
2014,04,12,16,31,16.80
2014,04,12,16,32,16.80
2014,04,12,16,33,16.80
2014,04,12,16,34,16.70
2014,04,12,16,35,16.70
2014,04,12,16,36,16.70
2014,04,12,16,37,16.70
2014,04,12,16,38,16.70
2014,04,12,16,39,16.70
2014,04,12,16,40,16.70
2014,04,12,16,41,16.70
2014,04,12,16,42,16.60
2014,04,12,16,43,16.60
2014,04,12,16,44,16.60
2014,04,12,16,45,16.60
2014,04,12,16,46,16.50
2014,04,12,16,47,16.60
2014,04,12,16,48,16.60
2014,04,12,16,49,16.60
2014,04,12,16,50,16.60
2014,04,12,16,51,16.70
2014,04,12,16,52,16.70
2014,04,12,16,53,16.80
2014,04,12,16,54,16.90
2014,04,12,16,55,16.90
2014,04,12,16,56,17.00
2014,04,12,16,57,17.00
2014,04,12,16,58,17.00
2014,04,12,16,59,17.00
2014,04,12,17,00,17.00
2014,04,12,17,01,17.00
2014,04,12,17,02,17.00
2014,04,12,17,03,17.00
2014,04,12,17,04,17.00
2014,04,12,17,05,17.10
2014,04,12,17,06,17.10
2014,04,12,17,07,17.10
2014,04,12,17,08,17.10
2014,04,12,17,09,17.20
2014,04,12,17,10,17.20
2014,04,12,17,11,17.20
2014,04,12,17,12,17.30
2014,04,12,17,13,17.30
2014,04,12,17,14,17.40
2014,04,12,17,15,17.40
2014,04,12,17,16,17.40
2014,04,12,17,17,17.40
2014,04,12,17,18,17.30
2014,04,12,17,19,17.30
2014,04,12,17,20,17.20
2014,04,12,17,21,17.20
2014,04,12,17,22,17.20
2014,04,12,17,23,17.20
2014,04,12,17,24,17.20
2014,04,12,17,25,17.20
2014,04,12,17,26,17.10
2014,04,12,17,27,17.10
2014,04,12,17,28,17.10
2014,04,12,17,29,17.10
2014,04,12,17,30,17.00
2014,04,12,17,31,17.00
2014,04,12,17,32,17.00
2014,04,12,17,33,16.90
2014,04,12,17,34,16.90
2014,04,12,17,35,16.90
2014,04,12,17,36,16.80
2014,04,12,17,37,16.70
2014,04,12,17,38,16.70
2014,04,12,17,39,16.60
2014,04,12,17,40,16.60
2014,04,12,17,41,16.60
2014,04,12,17,42,16.60
2014,04,12,17,43,16.50
2014,04,12,17,44,16.50
2014,04,12,17,45,16.50
2014,04,12,17,46,16.40
2014,04,12,17,47,16.40
2014,04,12,17,48,16.40